Weather History for KGUY - July, 2013

Change the Weather History Date:

Saturday, July 27, 2013

  Actual Average Record
Temperature  
Mean Temperature 80 °F 80 °F  
Max Temperature 97 °F 94 °F 107 °F (2011)
Min Temperature 63 °F 66 °F 52 °F (2005)
Degree Days  
Heating Degree Days 0 0  
Month to date heating degree days 0 0  
Since 1 June heating degree days 0 8  
Since 1 July heating degree days 0 0  
Cooling Degree Days 15 15  
Month to date cooling degree days 410 395  
Year to date cooling degree days 1050 783  
Since 1 June cooling degree days 846 675  
Growing Degree Days 30 (Base 50)    
Moisture  
Dew Point 54 °F    
Average Humidity 55    
Maximum Humidity 90    
Minimum Humidity 20    
Precipitation  
Precipitation 0.00 in 0.10 in 0.01 in (2001)
Month to date precipitation 0.94 2.29  
Year to date precipitation 6.22 11.48  
Snow  
Snow 0.00 in - - ()
Month to date snowfall 0.0  
Since 1 June snowfall T  
Since 1 July snowfall 0.0  
Snow Depth 0.00 in    
Sea Level Pressure  
Sea Level Pressure 29.89 in    
Wind  
Wind Speed 16 mph (SSW)    
Max Wind Speed 30 mph    
Max Gust Speed 39 mph    
Visibility 10 miles    
Events      
T = Trace of Precipitation, MM = Missing Value Source: NWS Daily Summary

Daily Weather History Graph

Daily Weather History Graph

Search for Another Location

Airport or City:

Trip Planner

Search our weather history database for the weather conditions in past years. The results will help you decide how hot, cold, wet, or windy it might be!

Date:

Astronomy

Jul. 27, 2013 Rise Set
Actual Time 6:48 AM CDT 8:56 PM CDT
Civil Twilight 6:19 AM CDT 9:25 PM CDT
Nautical Twilight 5:43 AM CDT 10:00 PM CDT
Astronomical Twilight 5:05 AM CDT 10:38 PM CDT
Moon 11:56 PM CDT (7/27) 12:19 PM CDT (7/27)
Length of Visible Light 15h 06m
Length of Day
14h 08m
Waning Gibbous, 70% of the Moon is Illuminated
Jul 27
Waning Gibbous
Jul 29
Last Quarter
Aug 6
New
Aug 14
First Quarter
Aug 20
Full

Hourly Weather History & Observations

Time (CDT) Temp. Heat Index Dew Point Humidity Pressure Visibility Wind Dir Wind Speed Gust Speed Precip Events Conditions
12:53 AM 69.1 °F - 55.9 °F 63% 30.08 in 10.0 mi SSE 5.8 mph - N/A   Clear
1:53 AM 64.9 °F - 55.9 °F 73% 30.06 in 10.0 mi South 4.6 mph - N/A   Clear
2:53 AM 64.9 °F - 57.0 °F 75% 30.04 in 10.0 mi South 5.8 mph - N/A   Clear
3:53 AM 63.0 °F - 57.9 °F 84% 30.03 in 10.0 mi SSW 8.1 mph - N/A   Clear
4:53 AM 63.0 °F - 59.0 °F 87% 30.02 in 10.0 mi SSW 6.9 mph - N/A   Clear
5:53 AM 63.0 °F - 59.0 °F 87% 30.00 in 10.0 mi SSW 6.9 mph - N/A   Clear
6:53 AM 63.0 °F - 59.0 °F 87% 30.01 in 10.0 mi SSW 5.8 mph - N/A   Clear
7:53 AM 66.9 °F - 61.0 °F 81% 30.00 in 10.0 mi SSW 6.9 mph - N/A   Clear
8:53 AM 72.0 °F - 61.0 °F 68% 29.99 in 10.0 mi SSW 16.1 mph - N/A   Clear
9:53 AM 79.0 °F - 61.0 °F 54% 29.95 in 10.0 mi SSW 18.4 mph 24.2 mph N/A   Clear
10:53 AM 82.9 °F 82.8 °F 59.0 °F 44% 29.93 in 10.0 mi SSW 24.2 mph 28.8 mph N/A   Clear
11:53 AM 88.0 °F 86.9 °F 57.9 °F 36% 29.90 in 10.0 mi SSW 21.9 mph 28.8 mph N/A   Clear
12:53 PM 90.0 °F 88.1 °F 55.9 °F 31% 29.89 in 10.0 mi South 19.6 mph 27.6 mph N/A   Clear
1:53 PM 91.9 °F 89.5 °F 53.1 °F 27% 29.87 in 10.0 mi SSW 23.0 mph 28.8 mph N/A   Clear
2:53 PM 93.9 °F - 51.1 °F 23% 29.83 in 10.0 mi South 23.0 mph 34.5 mph N/A   Clear
3:53 PM 96.1 °F - 48.0 °F 19% 29.79 in 10.0 mi SSW 27.6 mph 39.1 mph N/A   Clear
4:53 PM 93.9 °F - 46.9 °F 20% 29.77 in 10.0 mi SSW 20.7 mph 31.1 mph N/A   Clear
5:53 PM 96.1 °F - 48.0 °F 19% 29.74 in 10.0 mi SSW 23.0 mph 33.4 mph N/A   Clear
6:53 PM 93.9 °F - 48.0 °F 21% 29.70 in 10.0 mi SSW 27.6 mph 33.4 mph N/A   Clear
7:53 PM 90.0 °F - 48.0 °F 24% 29.73 in 10.0 mi South 18.4 mph 29.9 mph N/A   Clear
8:53 PM 86.0 °F - 51.1 °F 30% 29.74 in 10.0 mi South 16.1 mph - N/A   Clear
9:53 PM 82.0 °F - 51.1 °F 34% 29.75 in 10.0 mi South 15.0 mph 24.2 mph N/A   Clear
10:53 PM 81.0 °F - 51.1 °F 35% 29.78 in 10.0 mi SSE 15.0 mph - N/A   Clear
11:53 PM 80.1 °F - 50.0 °F 35% 29.77 in 10.0 mi South 16.1 mph - N/A   Clear